Year,Month,Day,Hour,Minute,Value (Times are PST for windspeed in km/hr)
2016,08,22,00,00,16.30
2016,08,22,00,01,13.30
2016,08,22,00,02,15.60
2016,08,22,00,03,7.40
2016,08,22,00,04,13.90
2016,08,22,00,05,9.40
2016,08,22,00,06,13.90
2016,08,22,00,07,14.30
2016,08,22,00,08,9.70
2016,08,22,00,09,13.80
2016,08,22,00,10,11.70
2016,08,22,00,11,14.10
2016,08,22,00,12,13.10
2016,08,22,00,13,10.60
2016,08,22,00,14,7.60
2016,08,22,00,15,8.50
2016,08,22,00,16,8.40
2016,08,22,00,17,7.60
2016,08,22,00,18,8.10
2016,08,22,00,19,10.40
2016,08,22,00,20,11.90
2016,08,22,00,21,6.40
2016,08,22,00,22,6.50
2016,08,22,00,23,13.80
2016,08,22,00,24,9.90
2016,08,22,00,25,6.60
2016,08,22,00,26,9.40
2016,08,22,00,27,6.00
2016,08,22,00,28,12.20
2016,08,22,00,29,10.70
2016,08,22,00,30,10.80
2016,08,22,00,31,7.30
2016,08,22,00,32,8.10
2016,08,22,00,33,10.90
2016,08,22,00,34,8.30
2016,08,22,00,35,6.50
2016,08,22,00,36,8.10
2016,08,22,00,37,5.40
2016,08,22,00,38,8.30
2016,08,22,00,39,10.30
2016,08,22,00,40,9.00
2016,08,22,00,41,6.90
2016,08,22,00,42,9.70
2016,08,22,00,43,8.70
2016,08,22,00,44,7.60
2016,08,22,00,45,5.00
2016,08,22,00,46,4.80
2016,08,22,00,47,4.80
2016,08,22,00,48,4.80
2016,08,22,00,49,4.80
2016,08,22,00,50,6.90
2016,08,22,00,51,3.30
2016,08,22,00,52,4.30
2016,08,22,00,53,2.90
2016,08,22,00,54,5.00
2016,08,22,00,55,4.10
2016,08,22,00,56,4.80
2016,08,22,00,57,4.20
2016,08,22,00,58,4.40
2016,08,22,00,59,3.70
2016,08,22,01,00,4.20
2016,08,22,01,01,6.50
2016,08,22,01,02,2.90
2016,08,22,01,03,2.40
2016,08,22,01,04,4.20
2016,08,22,01,05,3.80
2016,08,22,01,06,3.20
2016,08,22,01,07,3.90
2016,08,22,01,08,3.60
2016,08,22,01,09,2.10
2016,08,22,01,10,3.00
2016,08,22,01,11,5.20
2016,08,22,01,12,5.20
2016,08,22,01,13,5.80
2016,08,22,01,14,3.50
2016,08,22,01,15,5.10
2016,08,22,01,16,8.00
2016,08,22,01,17,8.50
2016,08,22,01,18,6.20
2016,08,22,01,19,9.30
2016,08,22,01,20,4.80
2016,08,22,01,21,6.10
2016,08,22,01,22,10.90
2016,08,22,01,23,10.60
2016,08,22,01,24,7.00
2016,08,22,01,25,6.00
2016,08,22,01,26,9.50
2016,08,22,01,27,5.30
2016,08,22,01,28,5.50
2016,08,22,01,29,9.40
2016,08,22,01,30,8.50
2016,08,22,01,31,4.60
2016,08,22,01,32,2.30
2016,08,22,01,33,0.70
2016,08,22,01,34,2.20
2016,08,22,01,35,1.60
2016,08,22,01,36,1.30
2016,08,22,01,37,0.40
2016,08,22,01,38,1.40
2016,08,22,01,39,2.90
2016,08,22,01,40,3.40
2016,08,22,01,41,2.10
2016,08,22,01,42,0.00
2016,08,22,01,43,0.50
2016,08,22,01,44,0.30
2016,08,22,01,45,0.20
2016,08,22,01,46,1.40
2016,08,22,01,47,1.80
2016,08,22,01,48,0.40
2016,08,22,01,49,0.40
2016,08,22,01,50,0.00
2016,08,22,01,51,0.00
2016,08,22,01,52,0.00
2016,08,22,01,53,0.10
2016,08,22,01,54,0.90
2016,08,22,01,55,0.00
2016,08,22,01,56,0.00
2016,08,22,01,57,0.00
2016,08,22,01,58,1.70
2016,08,22,01,59,2.30
2016,08,22,02,00,0.40
2016,08,22,02,01,2.00
2016,08,22,02,02,3.00
2016,08,22,02,03,2.60
2016,08,22,02,04,2.00
2016,08,22,02,05,2.70
2016,08,22,02,06,1.90
2016,08,22,02,07,3.90
2016,08,22,02,08,3.70
2016,08,22,02,09,2.30
2016,08,22,02,10,2.00
2016,08,22,02,11,1.70
2016,08,22,02,12,0.80
2016,08,22,02,13,0.80
2016,08,22,02,14,0.40
2016,08,22,02,15,0.00
2016,08,22,02,16,0.00
2016,08,22,02,17,0.70
2016,08,22,02,18,2.90
2016,08,22,02,19,3.60
2016,08,22,02,20,3.10
2016,08,22,02,21,3.10
2016,08,22,02,22,4.20
2016,08,22,02,23,4.70
2016,08,22,02,24,3.80
2016,08,22,02,25,3.30
2016,08,22,02,26,2.10
2016,08,22,02,27,1.00
2016,08,22,02,28,0.40
2016,08,22,02,29,0.50
2016,08,22,02,30,0.00
2016,08,22,02,31,0.00
2016,08,22,02,32,0.60
2016,08,22,02,33,3.00
2016,08,22,02,34,1.70
2016,08,22,02,35,2.60
2016,08,22,02,36,1.80
2016,08,22,02,37,0.10
2016,08,22,02,38,1.40
2016,08,22,02,39,0.10
2016,08,22,02,40,0.00
2016,08,22,02,41,0.00
2016,08,22,02,42,0.00
2016,08,22,02,43,0.00
2016,08,22,02,44,0.00
2016,08,22,02,45,0.00
2016,08,22,02,46,0.50
2016,08,22,02,47,0.50
2016,08,22,02,48,0.10
2016,08,22,02,49,0.10
2016,08,22,02,50,0.90
2016,08,22,02,51,0.50
2016,08,22,02,52,0.10
2016,08,22,02,53,0.00
2016,08,22,02,54,0.20
2016,08,22,02,55,0.70
2016,08,22,02,56,0.00
2016,08,22,02,57,0.80
2016,08,22,02,58,2.10
2016,08,22,02,59,1.90
2016,08,22,03,00,1.30
2016,08,22,03,01,0.80
2016,08,22,03,02,0.10
2016,08,22,03,03,0.00
2016,08,22,03,04,0.00
2016,08,22,03,05,0.10
2016,08,22,03,06,0.70
2016,08,22,03,07,0.00
2016,08,22,03,08,0.00
2016,08,22,03,09,0.40
2016,08,22,03,10,0.70
2016,08,22,03,11,0.00
2016,08,22,03,12,0.00
2016,08,22,03,13,0.00
2016,08,22,03,14,0.00
2016,08,22,03,15,0.10
2016,08,22,03,16,1.70
2016,08,22,03,17,1.10
2016,08,22,03,18,0.00
2016,08,22,03,19,0.90
2016,08,22,03,20,0.40
2016,08,22,03,21,2.30
2016,08,22,03,22,2.10
2016,08,22,03,23,2.20
2016,08,22,03,24,0.70
2016,08,22,03,25,2.30
2016,08,22,03,26,1.40
2016,08,22,03,27,0.30
2016,08,22,03,28,1.40
2016,08,22,03,29,2.00
2016,08,22,03,30,3.00
2016,08,22,03,31,2.90
2016,08,22,03,32,0.80
2016,08,22,03,33,1.60
2016,08,22,03,34,2.20
2016,08,22,03,35,1.80
2016,08,22,03,36,1.70
2016,08,22,03,37,3.80
2016,08,22,03,38,4.00
2016,08,22,03,39,3.30
2016,08,22,03,40,3.70
2016,08,22,03,41,2.70
2016,08,22,03,42,2.20
2016,08,22,03,43,4.20
2016,08,22,03,44,4.60
2016,08,22,03,45,3.90
2016,08,22,03,46,4.90
2016,08,22,03,47,3.30
2016,08,22,03,48,5.30
2016,08,22,03,49,3.60
2016,08,22,03,50,3.10
2016,08,22,03,51,3.00
2016,08,22,03,52,4.10
2016,08,22,03,53,5.70
2016,08,22,03,54,4.60
2016,08,22,03,55,4.30
2016,08,22,03,56,4.60
2016,08,22,03,57,3.50
2016,08,22,03,58,3.10
2016,08,22,03,59,3.70
2016,08,22,04,00,6.20
2016,08,22,04,01,3.90
2016,08,22,04,02,3.50
2016,08,22,04,03,5.40
2016,08,22,04,04,4.30
2016,08,22,04,05,5.30
2016,08,22,04,06,5.40
2016,08,22,04,07,3.60
2016,08,22,04,08,4.50
2016,08,22,04,09,4.10
2016,08,22,04,10,3.60
2016,08,22,04,11,3.50
2016,08,22,04,12,2.70
2016,08,22,04,13,3.50
2016,08,22,04,14,2.10
2016,08,22,04,15,1.70
2016,08,22,04,16,2.30
2016,08,22,04,17,2.90
2016,08,22,04,18,2.40
2016,08,22,04,19,2.90
2016,08,22,04,20,3.40
2016,08,22,04,21,2.80
2016,08,22,04,22,1.10
2016,08,22,04,23,0.10
2016,08,22,04,24,0.10
2016,08,22,04,25,0.40
2016,08,22,04,26,0.20
2016,08,22,04,27,1.30
2016,08,22,04,28,1.70
2016,08,22,04,29,3.60
2016,08,22,04,30,2.40
2016,08,22,04,31,2.10
2016,08,22,04,32,1.80
2016,08,22,04,33,0.10
2016,08,22,04,34,2.30
2016,08,22,04,35,3.30
2016,08,22,04,36,3.20
2016,08,22,04,37,2.70
2016,08,22,04,38,2.70
2016,08,22,04,39,1.80
2016,08,22,04,40,0.50
2016,08,22,04,41,0.20
2016,08,22,04,42,1.10
2016,08,22,04,43,0.70
2016,08,22,04,44,0.70
2016,08,22,04,45,2.60
2016,08,22,04,46,2.20
2016,08,22,04,47,2.20
2016,08,22,04,48,3.40
2016,08,22,04,49,3.50
2016,08,22,04,50,2.40
2016,08,22,04,51,1.70
2016,08,22,04,52,2.40
2016,08,22,04,53,2.60
2016,08,22,04,54,3.10
2016,08,22,04,55,3.90
2016,08,22,04,56,3.30
2016,08,22,04,57,3.80
2016,08,22,04,58,3.50
2016,08,22,04,59,4.30
2016,08,22,05,00,3.90
2016,08,22,05,01,4.20
2016,08,22,05,02,3.90
2016,08,22,05,03,2.80
2016,08,22,05,04,4.10
2016,08,22,05,05,5.80
2016,08,22,05,06,7.30
2016,08,22,05,07,3.30
2016,08,22,05,08,5.60
2016,08,22,05,09,3.00
2016,08,22,05,10,2.80
2016,08,22,05,11,3.20
2016,08,22,05,12,3.50
2016,08,22,05,13,3.60
2016,08,22,05,14,4.50
2016,08,22,05,15,2.80
2016,08,22,05,16,2.00
2016,08,22,05,17,2.30
2016,08,22,05,18,2.20
2016,08,22,05,19,2.40
2016,08,22,05,20,1.70
2016,08,22,05,21,0.10
2016,08,22,05,22,0.90
2016,08,22,05,23,1.30
2016,08,22,05,24,1.10
2016,08,22,05,25,2.90
2016,08,22,05,26,1.80
2016,08,22,05,27,1.70
2016,08,22,05,28,2.00
2016,08,22,05,29,1.60
2016,08,22,05,30,0.50
2016,08,22,05,31,0.00
2016,08,22,05,32,0.00
2016,08,22,05,33,0.40
2016,08,22,05,34,0.90
2016,08,22,05,35,0.10
2016,08,22,05,36,0.00
2016,08,22,05,37,0.00
2016,08,22,05,38,0.70
2016,08,22,05,39,2.10
2016,08,22,05,40,0.20
2016,08,22,05,41,1.00
2016,08,22,05,42,1.00
2016,08,22,05,43,1.30
2016,08,22,05,44,1.20
2016,08,22,05,45,2.50
2016,08,22,05,46,2.60
2016,08,22,05,47,2.40
2016,08,22,05,48,0.40
2016,08,22,05,49,1.10
2016,08,22,05,50,2.60
2016,08,22,05,51,1.60
2016,08,22,05,52,2.60
2016,08,22,05,53,0.70
2016,08,22,05,54,1.30
2016,08,22,05,55,0.90
2016,08,22,05,56,3.00
2016,08,22,05,57,1.70
2016,08,22,05,58,1.30
2016,08,22,05,59,1.70
2016,08,22,06,00,2.40
2016,08,22,06,01,3.70
2016,08,22,06,02,1.60
2016,08,22,06,03,2.40
2016,08,22,06,04,2.40
2016,08,22,06,05,3.50
2016,08,22,06,06,3.90
2016,08,22,06,07,3.10
2016,08,22,06,08,1.80
2016,08,22,06,09,3.00
2016,08,22,06,10,5.20
2016,08,22,06,11,3.00
2016,08,22,06,12,4.10
2016,08,22,06,13,2.70
2016,08,22,06,14,3.40
2016,08,22,06,15,2.30
2016,08,22,06,16,3.40
2016,08,22,06,17,2.40
2016,08,22,06,18,1.40
2016,08,22,06,19,2.10
2016,08,22,06,20,2.00
2016,08,22,06,21,2.00
2016,08,22,06,22,4.30
2016,08,22,06,23,3.20
2016,08,22,06,24,1.60
2016,08,22,06,25,3.00
2016,08,22,06,26,4.50
2016,08,22,06,27,5.90
2016,08,22,06,28,3.20
2016,08,22,06,29,1.60
2016,08,22,06,30,1.90
2016,08,22,06,31,2.00
2016,08,22,06,32,3.60
2016,08,22,06,33,3.20
2016,08,22,06,34,2.50
2016,08,22,06,35,2.60
2016,08,22,06,36,2.30
2016,08,22,06,37,2.30
2016,08,22,06,38,2.30
2016,08,22,06,39,1.90
2016,08,22,06,40,1.00
2016,08,22,06,41,1.60
2016,08,22,06,42,1.40
2016,08,22,06,43,0.70
2016,08,22,06,44,2.00
2016,08,22,06,45,1.80
2016,08,22,06,46,2.50
2016,08,22,06,47,2.00
2016,08,22,06,48,1.90
2016,08,22,06,49,1.30
2016,08,22,06,50,1.70
2016,08,22,06,51,2.90
2016,08,22,06,52,3.10
2016,08,22,06,53,2.40
2016,08,22,06,54,1.60
2016,08,22,06,55,3.10
2016,08,22,06,56,3.20
2016,08,22,06,57,2.20
2016,08,22,06,58,1.70
2016,08,22,06,59,2.70
2016,08,22,07,00,2.50
2016,08,22,07,01,1.60
2016,08,22,07,02,1.20
2016,08,22,07,03,1.00
2016,08,22,07,04,2.20
2016,08,22,07,05,4.00
2016,08,22,07,06,4.00
2016,08,22,07,07,3.40
2016,08,22,07,08,4.00
2016,08,22,07,09,6.00
2016,08,22,07,10,4.50
2016,08,22,07,11,2.90
2016,08,22,07,12,3.50
2016,08,22,07,13,3.00
2016,08,22,07,14,3.60
2016,08,22,07,15,2.30
2016,08,22,07,16,1.20
2016,08,22,07,17,1.40
2016,08,22,07,18,2.10
2016,08,22,07,19,3.90
2016,08,22,07,20,1.70
2016,08,22,07,21,4.70
2016,08,22,07,22,3.70
2016,08,22,07,23,5.00
2016,08,22,07,24,3.40
2016,08,22,07,25,2.40
2016,08,22,07,26,2.00
2016,08,22,07,27,3.20
2016,08,22,07,28,1.70
2016,08,22,07,29,3.30
2016,08,22,07,30,6.10
2016,08,22,07,31,4.10
2016,08,22,07,32,4.60
2016,08,22,07,33,3.90
2016,08,22,07,34,2.50
2016,08,22,07,35,3.70
2016,08,22,07,36,5.60
2016,08,22,07,37,4.60
2016,08,22,07,38,5.60
2016,08,22,07,39,3.90
2016,08,22,07,40,5.80
2016,08,22,07,41,4.60
2016,08,22,07,42,5.10
2016,08,22,07,43,4.40
2016,08,22,07,44,2.70
2016,08,22,07,45,4.00
2016,08,22,07,46,5.00
2016,08,22,07,47,5.90
2016,08,22,07,48,3.30
2016,08,22,07,49,2.80
2016,08,22,07,50,4.00
2016,08,22,07,51,5.20
2016,08,22,07,52,7.50
2016,08,22,07,53,6.40
2016,08,22,07,54,8.00
2016,08,22,07,55,8.60
2016,08,22,07,56,7.20
2016,08,22,07,57,5.80
2016,08,22,07,58,4.80
2016,08,22,07,59,2.30
2016,08,22,08,00,4.50
2016,08,22,08,01,5.20
2016,08,22,08,02,3.90
2016,08,22,08,03,2.40
2016,08,22,08,04,0.70
2016,08,22,08,05,2.80
2016,08,22,08,06,3.20
2016,08,22,08,07,4.50
2016,08,22,08,08,5.90
2016,08,22,08,09,3.20
2016,08,22,08,10,3.10
2016,08,22,08,11,3.40
2016,08,22,08,12,4.00
2016,08,22,08,13,4.00
2016,08,22,08,14,5.80
2016,08,22,08,15,4.00
2016,08,22,08,16,3.30
2016,08,22,08,17,3.30
2016,08,22,08,18,6.30
2016,08,22,08,19,7.10
2016,08,22,08,20,4.30
2016,08,22,08,21,4.70
2016,08,22,08,22,6.60
2016,08,22,08,23,7.60
2016,08,22,08,24,7.80
2016,08,22,08,25,6.00
2016,08,22,08,26,7.80
2016,08,22,08,27,7.40
2016,08,22,08,28,6.70
2016,08,22,08,29,5.10
2016,08,22,08,30,4.20
2016,08,22,08,31,4.70
2016,08,22,08,32,7.90
2016,08,22,08,33,10.30
2016,08,22,08,34,8.20
2016,08,22,08,35,7.20
2016,08,22,08,36,6.10
2016,08,22,08,37,5.70
2016,08,22,08,38,8.40
2016,08,22,08,39,4.30
2016,08,22,08,40,8.60
2016,08,22,08,41,7.30
2016,08,22,08,42,3.30
2016,08,22,08,43,5.20
2016,08,22,08,44,6.10
2016,08,22,08,45,7.00
2016,08,22,08,46,8.00
2016,08,22,08,47,6.00
2016,08,22,08,48,7.80
2016,08,22,08,49,8.50
2016,08,22,08,50,9.10
2016,08,22,08,51,8.00
2016,08,22,08,52,7.60
2016,08,22,08,53,9.40
2016,08,22,08,54,8.70
2016,08,22,08,55,10.10
2016,08,22,08,56,9.50
2016,08,22,08,57,9.20
2016,08,22,08,58,9.50
2016,08,22,08,59,10.30
2016,08,22,09,00,8.80
2016,08,22,09,01,8.50
2016,08,22,09,02,7.80
2016,08,22,09,03,11.80
2016,08,22,09,04,9.30
2016,08,22,09,05,11.20
2016,08,22,09,06,7.60
2016,08,22,09,07,8.80
2016,08,22,09,08,6.80
2016,08,22,09,09,12.80
2016,08,22,09,10,9.60
2016,08,22,09,11,5.30
2016,08,22,09,12,6.80
2016,08,22,09,13,10.80
2016,08,22,09,14,10.30
2016,08,22,09,15,11.90
2016,08,22,09,16,7.90
2016,08,22,09,17,7.00
2016,08,22,09,18,8.90
2016,08,22,09,19,7.50
2016,08,22,09,20,6.90
2016,08,22,09,21,6.90
2016,08,22,09,22,6.60
2016,08,22,09,23,7.80
2016,08,22,09,24,7.80
2016,08,22,09,25,10.50
2016,08,22,09,26,7.60
2016,08,22,09,27,8.90
2016,08,22,09,28,7.80
2016,08,22,09,29,5.40
2016,08,22,09,30,8.20
2016,08,22,09,31,11.00
2016,08,22,09,32,6.50
2016,08,22,09,33,5.60
2016,08,22,09,34,8.40
2016,08,22,09,35,11.30
2016,08,22,09,36,7.50
2016,08,22,09,37,5.40
2016,08,22,09,38,6.00
2016,08,22,09,39,5.10
2016,08,22,09,40,5.90
2016,08,22,09,41,7.30
2016,08,22,09,42,5.20
2016,08,22,09,43,10.40
2016,08,22,09,44,6.30
2016,08,22,09,45,12.20
2016,08,22,09,46,11.80
2016,08,22,09,47,6.00
2016,08,22,09,48,10.10
2016,08,22,09,49,8.10
2016,08,22,09,50,9.00
2016,08,22,09,51,7.70
2016,08,22,09,52,8.00
2016,08,22,09,53,10.00
2016,08,22,09,54,8.50
2016,08,22,09,55,13.80
2016,08,22,09,56,11.60
2016,08,22,09,57,4.90
2016,08,22,09,58,12.30
2016,08,22,09,59,12.10
2016,08,22,10,00,13.10
2016,08,22,10,01,8.50
2016,08,22,10,02,13.00
2016,08,22,10,03,10.40
2016,08,22,10,04,11.10
2016,08,22,10,05,14.20
2016,08,22,10,06,8.40
2016,08,22,10,07,7.30
2016,08,22,10,08,7.50
2016,08,22,10,09,8.60
2016,08,22,10,10,7.30
2016,08,22,10,11,8.10
2016,08,22,10,12,7.90
2016,08,22,10,13,5.60
2016,08,22,10,14,4.50
2016,08,22,10,15,7.10
2016,08,22,10,16,9.20
2016,08,22,10,17,14.70
2016,08,22,10,18,16.90
2016,08,22,10,19,11.90
2016,08,22,10,20,9.80
2016,08,22,10,21,13.70
2016,08,22,10,22,12.80
2016,08,22,10,23,14.60
2016,08,22,10,24,7.80
2016,08,22,10,25,11.10
2016,08,22,10,26,9.10
2016,08,22,10,27,6.00
2016,08,22,10,28,8.80
2016,08,22,10,29,10.70
2016,08,22,10,30,12.80
2016,08,22,10,31,13.50
2016,08,22,10,32,10.30
2016,08,22,10,33,15.90
2016,08,22,10,34,17.40
2016,08,22,10,35,12.50
2016,08,22,10,36,7.90
2016,08,22,10,37,8.30
2016,08,22,10,38,7.40
2016,08,22,10,39,16.90
2016,08,22,10,40,7.20
2016,08,22,10,41,7.60
2016,08,22,10,42,4.70
2016,08,22,10,43,6.90
2016,08,22,10,44,8.70
2016,08,22,10,45,14.10
2016,08,22,10,46,11.10
2016,08,22,10,47,11.40
2016,08,22,10,48,15.30
2016,08,22,10,49,8.90
2016,08,22,10,50,13.00
2016,08,22,10,51,11.80
2016,08,22,10,52,14.80
2016,08,22,10,53,18.40
2016,08,22,10,54,9.20
2016,08,22,10,55,11.30
2016,08,22,10,56,12.90
2016,08,22,10,57,8.70
2016,08,22,10,58,7.80
2016,08,22,10,59,5.90
2016,08,22,11,00,10.80
2016,08,22,11,01,13.40
2016,08,22,11,02,7.30
2016,08,22,11,03,5.70
2016,08,22,11,04,9.20
2016,08,22,11,05,7.10
2016,08,22,11,06,4.60
2016,08,22,11,07,7.00
2016,08,22,11,08,9.40
2016,08,22,11,09,12.00
2016,08,22,11,10,10.60
2016,08,22,11,11,9.50
2016,08,22,11,12,12.60
2016,08,22,11,13,11.00
2016,08,22,11,14,10.00
2016,08,22,11,15,7.80
2016,08,22,11,16,6.10
2016,08,22,11,17,15.50
2016,08,22,11,18,8.50
2016,08,22,11,19,8.00
2016,08,22,11,20,13.80
2016,08,22,11,21,6.60
2016,08,22,11,22,6.10
2016,08,22,11,23,12.70
2016,08,22,11,24,9.30
2016,08,22,11,25,12.90
2016,08,22,11,26,11.60
2016,08,22,11,27,13.20
2016,08,22,11,28,7.20
2016,08,22,11,29,5.70
2016,08,22,11,30,5.80
2016,08,22,11,31,7.80
2016,08,22,11,32,7.80
2016,08,22,11,33,14.20
2016,08,22,11,34,9.50
2016,08,22,11,35,16.30
2016,08,22,11,36,13.30
2016,08,22,11,37,9.10
2016,08,22,11,38,12.30
2016,08,22,11,39,7.30
2016,08,22,11,40,7.00
2016,08,22,11,41,13.80
2016,08,22,11,42,17.50
2016,08,22,11,43,9.40
2016,08,22,11,44,8.10
2016,08,22,11,45,11.60
2016,08,22,11,46,10.70
2016,08,22,11,47,10.30
2016,08,22,11,48,15.00
2016,08,22,11,49,12.10
2016,08,22,11,50,8.50
2016,08,22,11,51,12.50
2016,08,22,11,52,15.00
2016,08,22,11,53,11.40
2016,08,22,11,54,10.40
2016,08,22,11,55,14.70
2016,08,22,11,56,20.60
2016,08,22,11,57,16.00
2016,08,22,11,58,11.20
2016,08,22,11,59,10.70
2016,08,22,12,00,9.10
2016,08,22,12,01,17.20
2016,08,22,12,02,15.90
2016,08,22,12,03,14.90
2016,08,22,12,04,11.00
2016,08,22,12,05,14.70
2016,08,22,12,06,13.30
2016,08,22,12,07,15.40
2016,08,22,12,08,9.80
2016,08,22,12,09,7.60
2016,08,22,12,10,14.40
2016,08,22,12,11,8.80
2016,08,22,12,12,12.30
2016,08,22,12,13,7.50
2016,08,22,12,14,10.70
2016,08,22,12,15,11.30
2016,08,22,12,16,8.90
2016,08,22,12,17,14.40
2016,08,22,12,18,19.60
2016,08,22,12,19,17.10
2016,08,22,12,20,19.10
2016,08,22,12,21,12.00
2016,08,22,12,22,7.40
2016,08,22,12,23,15.90
2016,08,22,12,24,18.90
2016,08,22,12,25,12.70
2016,08,22,12,26,17.50
2016,08,22,12,27,14.00
2016,08,22,12,28,13.10
2016,08,22,12,29,10.50
2016,08,22,12,30,9.10
2016,08,22,12,31,13.50
2016,08,22,12,32,12.00
2016,08,22,12,33,15.80
2016,08,22,12,34,14.40
2016,08,22,12,35,12.10
2016,08,22,12,36,5.50
2016,08,22,12,37,7.70
2016,08,22,12,38,13.10
2016,08,22,12,39,7.70
2016,08,22,12,40,11.80
2016,08,22,12,41,16.10
2016,08,22,12,42,19.70
2016,08,22,12,43,20.80
2016,08,22,12,44,12.80
2016,08,22,12,45,10.20
2016,08,22,12,46,15.40
2016,08,22,12,47,15.20
2016,08,22,12,48,14.30
2016,08,22,12,49,13.40
2016,08,22,12,50,11.40
2016,08,22,12,51,8.60
2016,08,22,12,52,12.20
2016,08,22,12,53,10.70
2016,08,22,12,54,6.30
2016,08,22,12,55,9.10
2016,08,22,12,56,11.30
2016,08,22,12,57,10.10
2016,08,22,12,58,8.30
2016,08,22,12,59,10.60
2016,08,22,13,00,6.40
2016,08,22,13,01,8.50
2016,08,22,13,02,13.50
2016,08,22,13,03,19.70
2016,08,22,13,04,11.50
2016,08,22,13,05,9.10
2016,08,22,13,06,14.70
2016,08,22,13,07,13.60
2016,08,22,13,08,12.20
2016,08,22,13,09,8.00
2016,08,22,13,10,4.90
2016,08,22,13,11,11.00
2016,08,22,13,12,10.70
2016,08,22,13,13,18.20
2016,08,22,13,14,10.50
2016,08,22,13,15,12.20
2016,08,22,13,16,12.30
2016,08,22,13,17,14.70
2016,08,22,13,18,14.00
2016,08,22,13,19,7.90
2016,08,22,13,20,2.60
2016,08,22,13,21,4.60
2016,08,22,13,22,7.30
2016,08,22,13,23,11.30
2016,08,22,13,24,15.20
2016,08,22,13,25,15.40
2016,08,22,13,26,16.70
2016,08,22,13,27,7.90
2016,08,22,13,28,8.40
2016,08,22,13,29,13.90
2016,08,22,13,30,8.80
2016,08,22,13,31,11.20
2016,08,22,13,32,14.80
2016,08,22,13,33,12.00
2016,08,22,13,34,8.60
2016,08,22,13,35,7.10
2016,08,22,13,36,8.70
2016,08,22,13,37,15.60
2016,08,22,13,38,18.50
2016,08,22,13,39,10.60
2016,08,22,13,40,14.60
2016,08,22,13,41,11.90
2016,08,22,13,42,4.80
2016,08,22,13,43,14.50
2016,08,22,13,44,12.20
2016,08,22,13,45,6.40
2016,08,22,13,46,8.60
2016,08,22,13,47,8.10
2016,08,22,13,48,12.60
2016,08,22,13,49,17.60
2016,08,22,13,50,15.70
2016,08,22,13,51,14.10
2016,08,22,13,52,11.40
2016,08,22,13,53,16.00
2016,08,22,13,54,17.10
2016,08,22,13,55,6.90
2016,08,22,13,56,3.50
2016,08,22,13,57,4.60
2016,08,22,13,58,9.30
2016,08,22,13,59,9.10
2016,08,22,14,00,10.10
2016,08,22,14,01,5.30
2016,08,22,14,02,9.80
2016,08,22,14,03,6.30
2016,08,22,14,04,13.40
2016,08,22,14,05,15.60
2016,08,22,14,06,16.10
2016,08,22,14,07,17.00
2016,08,22,14,08,12.60
2016,08,22,14,09,12.60
2016,08,22,14,10,9.80
2016,08,22,14,11,11.20
2016,08,22,14,12,10.30
2016,08,22,14,13,6.20
2016,08,22,14,14,8.70
2016,08,22,14,15,6.40
2016,08,22,14,16,11.40
2016,08,22,14,17,9.50
2016,08,22,14,18,13.20
2016,08,22,14,19,17.30
2016,08,22,14,20,17.00
2016,08,22,14,21,15.40
2016,08,22,14,22,16.30
2016,08,22,14,23,6.40
2016,08,22,14,24,5.20
2016,08,22,14,25,7.10
2016,08,22,14,26,14.80
2016,08,22,14,27,8.10
2016,08,22,14,28,12.30
2016,08,22,14,29,8.90
2016,08,22,14,30,8.30
2016,08,22,14,31,7.60
2016,08,22,14,32,11.30
2016,08,22,14,33,6.70
2016,08,22,14,34,13.00
2016,08,22,14,35,10.50
2016,08,22,14,36,8.10
2016,08,22,14,37,7.70
2016,08,22,14,38,12.20
2016,08,22,14,39,14.20
2016,08,22,14,40,13.50
2016,08,22,14,41,10.10
2016,08,22,14,42,9.80
2016,08,22,14,43,12.50
2016,08,22,14,44,9.90
2016,08,22,14,45,2.30
2016,08,22,14,46,9.50
2016,08,22,14,47,12.50
2016,08,22,14,48,8.90
2016,08,22,14,49,8.60
2016,08,22,14,50,13.90
2016,08,22,14,51,12.20
2016,08,22,14,52,14.50
2016,08,22,14,53,9.50
2016,08,22,14,54,12.40
2016,08,22,14,55,7.10
2016,08,22,14,56,8.20
2016,08,22,14,57,11.10
2016,08,22,14,58,5.20
2016,08,22,14,59,8.20
2016,08,22,15,00,12.50
2016,08,22,15,01,9.10
2016,08,22,15,02,7.00
2016,08,22,15,03,13.10
2016,08,22,15,04,10.30
2016,08,22,15,05,7.00
2016,08,22,15,06,11.60
2016,08,22,15,07,8.10
2016,08,22,15,08,13.90
2016,08,22,15,09,11.10
2016,08,22,15,10,10.00
2016,08,22,15,11,8.20
2016,08,22,15,12,7.60
2016,08,22,15,13,13.50
2016,08,22,15,14,15.20
2016,08,22,15,15,10.90
2016,08,22,15,16,9.70
2016,08,22,15,17,8.20
2016,08,22,15,18,9.20
2016,08,22,15,19,4.20
2016,08,22,15,20,5.50
2016,08,22,15,21,7.00
2016,08,22,15,22,6.50
2016,08,22,15,23,5.50
2016,08,22,15,24,7.30
2016,08,22,15,25,9.70
2016,08,22,15,26,6.30
2016,08,22,15,27,6.00
2016,08,22,15,28,5.60
2016,08,22,15,29,10.60
2016,08,22,15,30,7.10
2016,08,22,15,31,8.20
2016,08,22,15,32,7.20
2016,08,22,15,33,4.80
2016,08,22,15,34,7.90
2016,08,22,15,35,9.40
2016,08,22,15,36,6.60
2016,08,22,15,37,7.60
2016,08,22,15,38,6.00
2016,08,22,15,39,5.70
2016,08,22,15,40,11.40
2016,08,22,15,41,11.10
2016,08,22,15,42,11.50
2016,08,22,15,43,12.40
2016,08,22,15,44,12.20
2016,08,22,15,45,6.30
2016,08,22,15,46,11.80
2016,08,22,15,47,11.60
2016,08,22,15,48,10.70
2016,08,22,15,49,8.20
2016,08,22,15,50,13.20
2016,08,22,15,51,13.20
2016,08,22,15,52,9.60
2016,08,22,15,53,14.30
2016,08,22,15,54,12.60
2016,08,22,15,55,10.70
2016,08,22,15,56,7.90
2016,08,22,15,57,11.70
2016,08,22,15,58,10.60
2016,08,22,15,59,14.70
2016,08,22,16,00,10.00
2016,08,22,16,01,13.60
2016,08,22,16,02,15.60
2016,08,22,16,03,10.00
2016,08,22,16,04,10.60
2016,08,22,16,05,8.20
2016,08,22,16,06,6.90
2016,08,22,16,07,6.30
2016,08,22,16,08,7.60
2016,08,22,16,09,11.10
2016,08,22,16,10,11.70
2016,08,22,16,11,6.20
2016,08,22,16,12,8.60
2016,08,22,16,13,8.70
2016,08,22,16,14,8.10
2016,08,22,16,15,9.80
2016,08,22,16,16,12.50
2016,08,22,16,17,10.40
2016,08,22,16,18,2.70
2016,08,22,16,19,4.40
2016,08,22,16,20,6.20
2016,08,22,16,21,5.90
2016,08,22,16,22,8.00
2016,08,22,16,23,8.10
2016,08,22,16,24,7.80
2016,08,22,16,25,6.00
2016,08,22,16,26,4.40
2016,08,22,16,27,4.40
2016,08,22,16,28,6.10
2016,08,22,16,29,14.40
2016,08,22,16,30,7.00
2016,08,22,16,31,9.80
2016,08,22,16,32,8.60
2016,08,22,16,33,6.30
2016,08,22,16,34,8.40
2016,08,22,16,35,9.80
2016,08,22,16,36,9.90
2016,08,22,16,37,7.90
2016,08,22,16,38,10.00
2016,08,22,16,39,9.50
2016,08,22,16,40,5.80
2016,08,22,16,41,9.60
2016,08,22,16,42,8.60
2016,08,22,16,43,10.20
2016,08,22,16,44,5.80
2016,08,22,16,45,10.00
2016,08,22,16,46,5.90
2016,08,22,16,47,5.90
2016,08,22,16,48,7.30
2016,08,22,16,49,3.90
2016,08,22,16,50,7.10
2016,08,22,16,51,8.30
2016,08,22,16,52,9.50
2016,08,22,16,53,8.70
2016,08,22,16,54,7.10
2016,08,22,16,55,6.80
2016,08,22,16,56,6.60
2016,08,22,16,57,10.00
2016,08,22,16,58,7.80
2016,08,22,16,59,6.10
2016,08,22,17,00,5.10
2016,08,22,17,01,4.50
2016,08,22,17,02,3.00
2016,08,22,17,03,3.00
2016,08,22,17,04,4.60
2016,08,22,17,05,9.20
2016,08,22,17,06,6.50
2016,08,22,17,07,6.90
2016,08,22,17,08,5.00
2016,08,22,17,09,4.40
2016,08,22,17,10,3.00
2016,08,22,17,11,2.90
2016,08,22,17,12,6.60
2016,08,22,17,13,5.40
2016,08,22,17,14,6.10
2016,08,22,17,15,7.30
2016,08,22,17,16,8.00
2016,08,22,17,17,5.90
2016,08,22,17,18,3.50
2016,08,22,17,19,1.50
2016,08,22,17,20,2.30
2016,08,22,17,21,6.50
2016,08,22,17,22,8.30
2016,08,22,17,23,11.60
2016,08,22,17,24,14.20
2016,08,22,17,25,7.00
2016,08,22,17,26,8.80
2016,08,22,17,27,5.70
2016,08,22,17,28,4.90
2016,08,22,17,29,8.50
2016,08,22,17,30,5.50
2016,08,22,17,31,6.60
2016,08,22,17,32,7.80
2016,08,22,17,33,6.20
2016,08,22,17,34,4.80
2016,08,22,17,35,5.20
2016,08,22,17,36,8.80
2016,08,22,17,37,5.00
2016,08,22,17,38,4.80
2016,08,22,17,39,7.10
2016,08,22,17,40,6.30
2016,08,22,17,41,7.90
2016,08,22,17,42,5.00
2016,08,22,17,43,5.90
2016,08,22,17,44,8.30
2016,08,22,17,45,10.20
2016,08,22,17,46,4.80
2016,08,22,17,47,6.80
2016,08,22,17,48,5.60
2016,08,22,17,49,8.90
2016,08,22,17,50,5.90
2016,08,22,17,51,3.20
2016,08,22,17,52,5.40
2016,08,22,17,53,7.40
2016,08,22,17,54,6.60